Year,Month,Day,Hour,Minute,Value (Times are PST for barometer in hPa)
2006,06,22,00,00,1026.05
2006,06,22,00,01,1026.04
2006,06,22,00,02,1026.04
2006,06,22,00,03,1026.04
2006,06,22,00,04,1026.04
2006,06,22,00,05,1026.04
2006,06,22,00,06,1026.04
2006,06,22,00,07,1026.04
2006,06,22,00,08,1026.04
2006,06,22,00,09,1026.04
2006,06,22,00,10,1026.04
2006,06,22,00,11,1026.04
2006,06,22,00,12,1026.04
2006,06,22,00,13,1026.04
2006,06,22,00,14,1026.04
2006,06,22,00,15,1025.98
2006,06,22,00,16,1025.94
2006,06,22,00,17,1025.94
2006,06,22,00,18,1025.94
2006,06,22,00,19,1025.94
2006,06,22,00,20,1025.94
2006,06,22,00,21,1025.94
2006,06,22,00,22,1025.94
2006,06,22,00,23,1025.94
2006,06,22,00,24,1025.94
2006,06,22,00,25,1025.94
2006,06,22,00,26,1025.94
2006,06,22,00,27,1025.94
2006,06,22,00,28,1025.94
2006,06,22,00,29,1025.94
2006,06,22,00,30,1025.85
2006,06,22,00,31,1025.81
2006,06,22,00,32,1025.81
2006,06,22,00,33,1025.81
2006,06,22,00,34,1025.81
2006,06,22,00,35,1025.81
2006,06,22,00,36,1025.81
2006,06,22,00,37,1025.81
2006,06,22,00,38,1025.81
2006,06,22,00,39,1025.81
2006,06,22,00,40,1025.81
2006,06,22,00,41,1025.81
2006,06,22,00,42,1025.81
2006,06,22,00,43,1025.81
2006,06,22,00,44,1025.81
2006,06,22,00,45,1025.68
2006,06,22,00,46,1025.57
2006,06,22,00,47,1025.57
2006,06,22,00,48,1025.57
2006,06,22,00,49,1025.57
2006,06,22,00,50,1025.57
2006,06,22,00,51,1025.57
2006,06,22,00,52,1025.57
2006,06,22,00,53,1025.57
2006,06,22,00,54,1025.57
2006,06,22,00,55,1025.57
2006,06,22,00,56,1025.57
2006,06,22,00,57,1025.57
2006,06,22,00,58,1025.57
2006,06,22,00,59,1025.57
2006,06,22,01,00,1025.57
2006,06,22,01,01,1025.57
2006,06,22,01,02,1025.57
2006,06,22,01,03,1025.57
2006,06,22,01,04,1025.57
2006,06,22,01,05,1025.57
2006,06,22,01,06,1025.57
2006,06,22,01,07,1025.57
2006,06,22,01,08,1025.57
2006,06,22,01,09,1025.57
2006,06,22,01,10,1025.57
2006,06,22,01,11,1025.57
2006,06,22,01,12,1025.57
2006,06,22,01,13,1025.57
2006,06,22,01,14,1025.57
2006,06,22,01,15,1025.55
2006,06,22,01,16,1025.53
2006,06,22,01,17,1025.53
2006,06,22,01,18,1025.53
2006,06,22,01,19,1025.53
2006,06,22,01,20,1025.53
2006,06,22,01,21,1025.53
2006,06,22,01,22,1025.53
2006,06,22,01,23,1025.53
2006,06,22,01,24,1025.53
2006,06,22,01,25,1025.53
2006,06,22,01,26,1025.53
2006,06,22,01,27,1025.53
2006,06,22,01,28,1025.53
2006,06,22,01,29,1025.53
2006,06,22,01,30,1025.55
2006,06,22,01,31,1025.57
2006,06,22,01,32,1025.57
2006,06,22,01,33,1025.57
2006,06,22,01,34,1025.57
2006,06,22,01,35,1025.57
2006,06,22,01,36,1025.57
2006,06,22,01,37,1025.57
2006,06,22,01,38,1025.57
2006,06,22,01,39,1025.57
2006,06,22,01,40,1025.57
2006,06,22,01,41,1025.57
2006,06,22,01,42,1025.57
2006,06,22,01,43,1025.57
2006,06,22,01,44,1025.57
2006,06,22,01,45,1025.55
2006,06,22,01,46,1025.53
2006,06,22,01,47,1025.53
2006,06,22,01,48,1025.53
2006,06,22,01,49,1025.53
2006,06,22,01,50,1025.53
2006,06,22,01,51,1025.53
2006,06,22,01,52,1025.53
2006,06,22,01,53,1025.53
2006,06,22,01,54,1025.53
2006,06,22,01,55,1025.53
2006,06,22,01,56,1025.53
2006,06,22,01,57,1025.53
2006,06,22,01,58,1025.53
2006,06,22,01,59,1025.53
2006,06,22,02,00,1025.51
2006,06,22,02,01,1025.50
2006,06,22,02,02,1025.50
2006,06,22,02,03,1025.50
2006,06,22,02,04,1025.50
2006,06,22,02,05,1025.50
2006,06,22,02,06,1025.50
2006,06,22,02,07,1025.50
2006,06,22,02,08,1025.50
2006,06,22,02,09,1025.50
2006,06,22,02,10,1025.50
2006,06,22,02,11,1025.50
2006,06,22,02,12,1025.50
2006,06,22,02,13,1025.50
2006,06,22,02,14,1025.50
2006,06,22,02,15,1025.52
2006,06,22,02,16,1025.53
2006,06,22,02,17,1025.53
2006,06,22,02,18,1025.53
2006,06,22,02,19,1025.53
2006,06,22,02,20,1025.53
2006,06,22,02,21,1025.53
2006,06,22,02,22,1025.53
2006,06,22,02,23,1025.53
2006,06,22,02,24,1025.53
2006,06,22,02,25,1025.53
2006,06,22,02,26,1025.53
2006,06,22,02,27,1025.53
2006,06,22,02,28,1025.53
2006,06,22,02,29,1025.53
2006,06,22,02,30,1025.53
2006,06,22,02,31,1025.53
2006,06,22,02,32,1025.53
2006,06,22,02,33,1025.53
2006,06,22,02,34,1025.53
2006,06,22,02,35,1025.53
2006,06,22,02,36,1025.53
2006,06,22,02,37,1025.53
2006,06,22,02,38,1025.53
2006,06,22,02,39,1025.53
2006,06,22,02,40,1025.53
2006,06,22,02,41,1025.53
2006,06,22,02,42,1025.53
2006,06,22,02,43,1025.53
2006,06,22,02,44,1025.53
2006,06,22,02,45,1025.48
2006,06,22,02,46,1025.43
2006,06,22,02,47,1025.43
2006,06,22,02,48,1025.43
2006,06,22,02,49,1025.43
2006,06,22,02,50,1025.43
2006,06,22,02,51,1025.43
2006,06,22,02,52,1025.43
2006,06,22,02,53,1025.43
2006,06,22,02,54,1025.43
2006,06,22,02,55,1025.43
2006,06,22,02,56,1025.43
2006,06,22,02,57,1025.43
2006,06,22,02,58,1025.43
2006,06,22,02,59,1025.43
2006,06,22,03,00,1025.42
2006,06,22,03,01,1025.40
2006,06,22,03,02,1025.40
2006,06,22,03,03,1025.40
2006,06,22,03,04,1025.40
2006,06,22,03,05,1025.40
2006,06,22,03,06,1025.40
2006,06,22,03,07,1025.40
2006,06,22,03,08,1025.40
2006,06,22,03,09,1025.40
2006,06,22,03,10,1025.40
2006,06,22,03,11,1025.40
2006,06,22,03,12,1025.40
2006,06,22,03,13,1025.40
2006,06,22,03,14,1025.40
2006,06,22,03,15,1025.36
2006,06,22,03,16,1025.33
2006,06,22,03,17,1025.33
2006,06,22,03,18,1025.33
2006,06,22,03,19,1025.33
2006,06,22,03,20,1025.33
2006,06,22,03,21,1025.33
2006,06,22,03,22,1025.33
2006,06,22,03,23,1025.33
2006,06,22,03,24,1025.33
2006,06,22,03,25,1025.33
2006,06,22,03,26,1025.33
2006,06,22,03,27,1025.33
2006,06,22,03,28,1025.33
2006,06,22,03,29,1025.33
2006,06,22,03,30,1025.35
2006,06,22,03,31,1025.37
2006,06,22,03,32,1025.37
2006,06,22,03,33,1025.37
2006,06,22,03,34,1025.37
2006,06,22,03,35,1025.37
2006,06,22,03,36,1025.37
2006,06,22,03,37,1025.37
2006,06,22,03,38,1025.37
2006,06,22,03,39,1025.37
2006,06,22,03,40,1025.37
2006,06,22,03,41,1025.37
2006,06,22,03,42,1025.37
2006,06,22,03,43,1025.37
2006,06,22,03,44,1025.37
2006,06,22,03,45,1025.37
2006,06,22,03,46,1025.37
2006,06,22,03,47,1025.37
2006,06,22,03,48,1025.37
2006,06,22,03,49,1025.37
2006,06,22,03,50,1025.37
2006,06,22,03,51,1025.37
2006,06,22,03,52,1025.37
2006,06,22,03,53,1025.37
2006,06,22,03,54,1025.37
2006,06,22,03,55,1025.37
2006,06,22,03,56,1025.37
2006,06,22,03,57,1025.37
2006,06,22,03,58,1025.37
2006,06,22,03,59,1025.37
2006,06,22,04,00,1025.31
2006,06,22,04,01,1025.26
2006,06,22,04,02,1025.26
2006,06,22,04,03,1025.26
2006,06,22,04,04,1025.26
2006,06,22,04,05,1025.26
2006,06,22,04,06,1025.26
2006,06,22,04,07,1025.26
2006,06,22,04,08,1025.26
2006,06,22,04,09,1025.26
2006,06,22,04,10,1025.26
2006,06,22,04,11,1025.26
2006,06,22,04,12,1025.26
2006,06,22,04,13,1025.26
2006,06,22,04,14,1025.26
2006,06,22,04,15,1025.26
2006,06,22,04,16,1025.26
2006,06,22,04,17,1025.26
2006,06,22,04,18,1025.26
2006,06,22,04,19,1025.26
2006,06,22,04,20,1025.26
2006,06,22,04,21,1025.26
2006,06,22,04,22,1025.26
2006,06,22,04,23,1025.26
2006,06,22,04,24,1025.26
2006,06,22,04,25,1025.26
2006,06,22,04,26,1025.26
2006,06,22,04,27,1025.26
2006,06,22,04,28,1025.26
2006,06,22,04,29,1025.26
2006,06,22,04,30,1025.23
2006,06,22,04,31,1025.20
2006,06,22,04,32,1025.20
2006,06,22,04,33,1025.20
2006,06,22,04,34,1025.20
2006,06,22,04,35,1025.20
2006,06,22,04,36,1025.20
2006,06,22,04,37,1025.20
2006,06,22,04,38,1025.20
2006,06,22,04,39,1025.20
2006,06,22,04,40,1025.20
2006,06,22,04,41,1025.20
2006,06,22,04,42,1025.20
2006,06,22,04,43,1025.20
2006,06,22,04,44,1025.20
2006,06,22,04,45,1025.23
2006,06,22,04,46,1025.26
2006,06,22,04,47,1025.26
2006,06,22,04,48,1025.26
2006,06,22,04,49,1025.26
2006,06,22,04,50,1025.26
2006,06,22,04,51,1025.26
2006,06,22,04,52,1025.26
2006,06,22,04,53,1025.26
2006,06,22,04,54,1025.26
2006,06,22,04,55,1025.26
2006,06,22,04,56,1025.26
2006,06,22,04,57,1025.26
2006,06,22,04,58,1025.26
2006,06,22,04,59,1025.26
2006,06,22,05,00,1025.23
2006,06,22,05,01,1025.20
2006,06,22,05,02,1025.20
2006,06,22,05,03,1025.20
2006,06,22,05,04,1025.20
2006,06,22,05,05,1025.20
2006,06,22,05,06,1025.20
2006,06,22,05,07,1025.20
2006,06,22,05,08,1025.20
2006,06,22,05,09,1025.20
2006,06,22,05,10,1025.20
2006,06,22,05,11,1025.20
2006,06,22,05,12,1025.20
2006,06,22,05,13,1025.20
2006,06,22,05,14,1025.20
2006,06,22,05,15,1025.23
2006,06,22,05,16,1025.26
2006,06,22,05,17,1025.26
2006,06,22,05,18,1025.26
2006,06,22,05,19,1025.26
2006,06,22,05,20,1025.26
2006,06,22,05,21,1025.26
2006,06,22,05,22,1025.26
2006,06,22,05,23,1025.26
2006,06,22,05,24,1025.26
2006,06,22,05,25,1025.26
2006,06,22,05,26,1025.26
2006,06,22,05,27,1025.26
2006,06,22,05,28,1025.26
2006,06,22,05,29,1025.26
2006,06,22,05,30,1025.35
2006,06,22,05,31,1025.43
2006,06,22,05,32,1025.43
2006,06,22,05,33,1025.43
2006,06,22,05,34,1025.43
2006,06,22,05,35,1025.43
2006,06,22,05,36,1025.43
2006,06,22,05,37,1025.43
2006,06,22,05,38,1025.43
2006,06,22,05,39,1025.43
2006,06,22,05,40,1025.43
2006,06,22,05,41,1025.43
2006,06,22,05,42,1025.43
2006,06,22,05,43,1025.43
2006,06,22,05,44,1025.43
2006,06,22,05,45,1025.43
2006,06,22,05,46,1025.43
2006,06,22,05,47,1025.43
2006,06,22,05,48,1025.43
2006,06,22,05,49,1025.43
2006,06,22,05,50,1025.43
2006,06,22,05,51,1025.43
2006,06,22,05,52,1025.43
2006,06,22,05,53,1025.43
2006,06,22,05,54,1025.43
2006,06,22,05,55,1025.43
2006,06,22,05,56,1025.43
2006,06,22,05,57,1025.43
2006,06,22,05,58,1025.43
2006,06,22,05,59,1025.43
2006,06,22,06,00,1025.48
2006,06,22,06,01,1025.53
2006,06,22,06,02,1025.53
2006,06,22,06,03,1025.53
2006,06,22,06,04,1025.53
2006,06,22,06,05,1025.53
2006,06,22,06,06,1025.53
2006,06,22,06,07,1025.53
2006,06,22,06,08,1025.53
2006,06,22,06,09,1025.53
2006,06,22,06,10,1025.53
2006,06,22,06,11,1025.53
2006,06,22,06,12,1025.53
2006,06,22,06,13,1025.53
2006,06,22,06,14,1025.53
2006,06,22,06,15,1025.55
2006,06,22,06,16,1025.57
2006,06,22,06,17,1025.57
2006,06,22,06,18,1025.57
2006,06,22,06,19,1025.57
2006,06,22,06,20,1025.57
2006,06,22,06,21,1025.57
2006,06,22,06,22,1025.57
2006,06,22,06,23,1025.57
2006,06,22,06,24,1025.57
2006,06,22,06,25,1025.57
2006,06,22,06,26,1025.57
2006,06,22,06,27,1025.57
2006,06,22,06,28,1025.57
2006,06,22,06,29,1025.57
2006,06,22,06,30,1025.44
2006,06,22,06,31,1025.33
2006,06,22,06,32,1025.33
2006,06,22,06,33,1025.33
2006,06,22,06,34,1025.33
2006,06,22,06,35,1025.33
2006,06,22,06,36,1025.33
2006,06,22,06,37,1025.33
2006,06,22,06,38,1025.33
2006,06,22,06,39,1025.33
2006,06,22,06,40,1025.33
2006,06,22,06,41,1025.33
2006,06,22,06,42,1025.33
2006,06,22,06,43,1025.33
2006,06,22,06,44,1025.33
2006,06,22,06,45,1025.47
2006,06,22,06,46,1025.60
2006,06,22,06,47,1025.60
2006,06,22,06,48,1025.60
2006,06,22,06,49,1025.60
2006,06,22,06,50,1025.60
2006,06,22,06,51,1025.60
2006,06,22,06,52,1025.60
2006,06,22,06,53,1025.60
2006,06,22,06,54,1025.60
2006,06,22,06,55,1025.60
2006,06,22,06,56,1025.60
2006,06,22,06,57,1025.60
2006,06,22,06,58,1025.60
2006,06,22,06,59,1025.60
2006,06,22,07,00,1025.73
2006,06,22,07,01,1025.84
2006,06,22,07,02,1025.84
2006,06,22,07,03,1025.84
2006,06,22,07,04,1025.84
2006,06,22,07,05,1025.84
2006,06,22,07,06,1025.84
2006,06,22,07,07,1025.84
2006,06,22,07,08,1025.84
2006,06,22,07,09,1025.84
2006,06,22,07,10,1025.84
2006,06,22,07,11,1025.84
2006,06,22,07,12,1025.84
2006,06,22,07,13,1025.84
2006,06,22,07,14,1025.84
2006,06,22,07,15,1025.83
2006,06,22,07,16,1025.81
2006,06,22,07,17,1025.81
2006,06,22,07,18,1025.81
2006,06,22,07,19,1025.81
2006,06,22,07,20,1025.81
2006,06,22,07,21,1025.81
2006,06,22,07,22,1025.81
2006,06,22,07,23,1025.81
2006,06,22,07,24,1025.81
2006,06,22,07,25,1025.81
2006,06,22,07,26,1025.81
2006,06,22,07,27,1025.81
2006,06,22,07,28,1025.81
2006,06,22,07,29,1025.81
2006,06,22,07,30,1025.93
2006,06,22,07,31,1026.04
2006,06,22,07,32,1026.04
2006,06,22,07,33,1026.04
2006,06,22,07,34,1026.04
2006,06,22,07,35,1026.04
2006,06,22,07,36,1026.04
2006,06,22,07,37,1026.04
2006,06,22,07,38,1026.04
2006,06,22,07,39,1026.04
2006,06,22,07,40,1026.04
2006,06,22,07,41,1026.04
2006,06,22,07,42,1026.04
2006,06,22,07,43,1026.04
2006,06,22,07,44,1026.04
2006,06,22,07,45,1026.14
2006,06,22,07,46,1026.14
2006,06,22,07,47,1026.14
2006,06,22,07,48,1026.14
2006,06,22,07,49,1026.14
2006,06,22,07,50,1026.14
2006,06,22,07,51,1026.14
2006,06,22,07,52,1026.14
2006,06,22,07,53,1026.14
2006,06,22,07,54,1026.14
2006,06,22,07,55,1026.14
2006,06,22,07,56,1026.14
2006,06,22,07,57,1026.14
2006,06,22,07,58,1026.14
2006,06,22,07,59,1026.14
2006,06,22,08,00,1026.38
2006,06,22,08,01,1026.38
2006,06,22,08,02,1026.38
2006,06,22,08,03,1026.38
2006,06,22,08,04,1026.38
2006,06,22,08,05,1026.38
2006,06,22,08,06,1026.38
2006,06,22,08,07,1026.38
2006,06,22,08,08,1026.38
2006,06,22,08,09,1026.38
2006,06,22,08,10,1026.38
2006,06,22,08,11,1026.38
2006,06,22,08,12,1026.38
2006,06,22,08,13,1026.38
2006,06,22,08,14,1026.38
2006,06,22,08,15,1026.61
2006,06,22,08,16,1026.62
2006,06,22,08,17,1026.62
2006,06,22,08,18,1026.62
2006,06,22,08,19,1026.62
2006,06,22,08,20,1026.62
2006,06,22,08,21,1026.62
2006,06,22,08,22,1026.62
2006,06,22,08,23,1026.62
2006,06,22,08,24,1026.62
2006,06,22,08,25,1026.62
2006,06,22,08,26,1026.62
2006,06,22,08,27,1026.62
2006,06,22,08,28,1026.62
2006,06,22,08,29,1026.62
2006,06,22,08,30,1026.45
2006,06,22,08,31,1026.45
2006,06,22,08,32,1026.45
2006,06,22,08,33,1026.45
2006,06,22,08,34,1026.45
2006,06,22,08,35,1026.45
2006,06,22,08,36,1026.45
2006,06,22,08,37,1026.45
2006,06,22,08,38,1026.45
2006,06,22,08,39,1026.45
2006,06,22,08,40,1026.45
2006,06,22,08,41,1026.45
2006,06,22,08,42,1026.45
2006,06,22,08,43,1026.45
2006,06,22,08,44,1026.45
2006,06,22,08,45,1026.19
2006,06,22,08,46,1026.18
2006,06,22,08,47,1026.18
2006,06,22,08,48,1026.18
2006,06,22,08,49,1026.18
2006,06,22,08,50,1026.18
2006,06,22,08,51,1026.18
2006,06,22,08,52,1026.18
2006,06,22,08,53,1026.18
2006,06,22,08,54,1026.18
2006,06,22,08,55,1026.18
2006,06,22,08,56,1026.18
2006,06,22,08,57,1026.18
2006,06,22,08,58,1026.18
2006,06,22,08,59,1026.18
2006,06,22,09,00,1026.18
2006,06,22,09,01,1026.18
2006,06,22,09,02,1026.18
2006,06,22,09,03,1026.18
2006,06,22,09,04,1026.18
2006,06,22,09,05,1026.18
2006,06,22,09,06,1026.18
2006,06,22,09,07,1026.18
2006,06,22,09,08,1026.18
2006,06,22,09,09,1026.18
2006,06,22,09,10,1026.18
2006,06,22,09,11,1026.18
2006,06,22,09,12,1026.18
2006,06,22,09,13,1026.18
2006,06,22,09,14,1026.18
2006,06,22,09,15,1026.21
2006,06,22,09,16,1026.21
2006,06,22,09,17,1026.21
2006,06,22,09,18,1026.21
2006,06,22,09,19,1026.21
2006,06,22,09,20,1026.21
2006,06,22,09,21,1026.21
2006,06,22,09,22,1026.21
2006,06,22,09,23,1026.21
2006,06,22,09,24,1026.21
2006,06,22,09,25,1026.21
2006,06,22,09,26,1026.21
2006,06,22,09,27,1026.21
2006,06,22,09,28,1026.21
2006,06,22,09,29,1026.21
2006,06,22,09,30,1026.21
2006,06,22,09,31,1026.21
2006,06,22,09,32,1026.21
2006,06,22,09,33,1026.21
2006,06,22,09,34,1026.21
2006,06,22,09,35,1026.21
2006,06,22,09,36,1026.21
2006,06,22,09,37,1026.21
2006,06,22,09,38,1026.21
2006,06,22,09,39,1026.21
2006,06,22,09,40,1026.21
2006,06,22,09,41,1026.21
2006,06,22,09,42,1026.21
2006,06,22,09,43,1026.21
2006,06,22,09,44,1026.21
2006,06,22,09,45,1026.21
2006,06,22,09,46,1026.21
2006,06,22,09,47,1026.21
2006,06,22,09,48,1026.21
2006,06,22,09,49,1026.21
2006,06,22,09,50,1026.21
2006,06,22,09,51,1026.21
2006,06,22,09,52,1026.21
2006,06,22,09,53,1026.21
2006,06,22,09,54,1026.21
2006,06,22,09,55,1026.21
2006,06,22,09,56,1026.21
2006,06,22,09,57,1026.21
2006,06,22,09,58,1026.21
2006,06,22,09,59,1026.21
2006,06,22,10,00,1026.28
2006,06,22,10,01,1026.28
2006,06,22,10,02,1026.28
2006,06,22,10,03,1026.28
2006,06,22,10,04,1026.28
2006,06,22,10,05,1026.28
2006,06,22,10,06,1026.28
2006,06,22,10,07,1026.28
2006,06,22,10,08,1026.28
2006,06,22,10,09,1026.28
2006,06,22,10,10,1026.28
2006,06,22,10,11,1026.28
2006,06,22,10,12,1026.28
2006,06,22,10,13,1026.28
2006,06,22,10,14,1026.28
2006,06,22,10,15,1026.44
2006,06,22,10,16,1026.45
2006,06,22,10,17,1026.45
2006,06,22,10,18,1026.45
2006,06,22,10,19,1026.45
2006,06,22,10,20,1026.45
2006,06,22,10,21,1026.45
2006,06,22,10,22,1026.45
2006,06,22,10,23,1026.45
2006,06,22,10,24,1026.45
2006,06,22,10,25,1026.45
2006,06,22,10,26,1026.45
2006,06,22,10,27,1026.45
2006,06,22,10,28,1026.45
2006,06,22,10,29,1026.45
2006,06,22,10,30,1026.48
2006,06,22,10,31,1026.48
2006,06,22,10,32,1026.48
2006,06,22,10,33,1026.48
2006,06,22,10,34,1026.48
2006,06,22,10,35,1026.48
2006,06,22,10,36,1026.48
2006,06,22,10,37,1026.48
2006,06,22,10,38,1026.48
2006,06,22,10,39,1026.48
2006,06,22,10,40,1026.48
2006,06,22,10,41,1026.48
2006,06,22,10,42,1026.48
2006,06,22,10,43,1026.48
2006,06,22,10,44,1026.48
2006,06,22,10,45,1026.57
2006,06,22,10,46,1026.58
2006,06,22,10,47,1026.58
2006,06,22,10,48,1026.58
2006,06,22,10,49,1026.58
2006,06,22,10,50,1026.58
2006,06,22,10,51,1026.58
2006,06,22,10,52,1026.58
2006,06,22,10,53,1026.58
2006,06,22,10,54,1026.58
2006,06,22,10,55,1026.58
2006,06,22,10,56,1026.58
2006,06,22,10,57,1026.58
2006,06,22,10,58,1026.58
2006,06,22,10,59,1026.58
2006,06,22,11,00,1026.68
2006,06,22,11,01,1026.69
2006,06,22,11,02,1026.69
2006,06,22,11,03,1026.69
2006,06,22,11,04,1026.69
2006,06,22,11,05,1026.69
2006,06,22,11,06,1026.69
2006,06,22,11,07,1026.69
2006,06,22,11,08,1026.69
2006,06,22,11,09,1026.69
2006,06,22,11,10,1026.69
2006,06,22,11,11,1026.69
2006,06,22,11,12,1026.69
2006,06,22,11,13,1026.69
2006,06,22,11,14,1026.69
2006,06,22,11,15,1026.79
2006,06,22,11,16,1026.79
2006,06,22,11,17,1026.79
2006,06,22,11,18,1026.79
2006,06,22,11,19,1026.79
2006,06,22,11,20,1026.79
2006,06,22,11,21,1026.79
2006,06,22,11,22,1026.79
2006,06,22,11,23,1026.79
2006,06,22,11,24,1026.79
2006,06,22,11,25,1026.79
2006,06,22,11,26,1026.79
2006,06,22,11,27,1026.79
2006,06,22,11,28,1026.79
2006,06,22,11,29,1026.79
2006,06,22,11,30,1026.86
2006,06,22,11,31,1026.86
2006,06,22,11,32,1026.86
2006,06,22,11,33,1026.86
2006,06,22,11,34,1026.86
2006,06,22,11,35,1026.86
2006,06,22,11,36,1026.86
2006,06,22,11,37,1026.86
2006,06,22,11,38,1026.86
2006,06,22,11,39,1026.86
2006,06,22,11,40,1026.86
2006,06,22,11,41,1026.86
2006,06,22,11,42,1026.86
2006,06,22,11,43,1026.86
2006,06,22,11,44,1026.86
2006,06,22,11,45,1026.76
2006,06,22,11,46,1026.75
2006,06,22,11,47,1026.75
2006,06,22,11,48,1026.75
2006,06,22,11,49,1026.75
2006,06,22,11,50,1026.75
2006,06,22,11,51,1026.75
2006,06,22,11,52,1026.75
2006,06,22,11,53,1026.75
2006,06,22,11,54,1026.75
2006,06,22,11,55,1026.75
2006,06,22,11,56,1026.75
2006,06,22,11,57,1026.75
2006,06,22,11,58,1026.75
2006,06,22,11,59,1026.75
2006,06,22,12,00,1026.72
2006,06,22,12,01,1026.72
2006,06,22,12,02,1026.72
2006,06,22,12,03,1026.72
2006,06,22,12,04,1026.72
2006,06,22,12,05,1026.72
2006,06,22,12,06,1026.72
2006,06,22,12,07,1026.72
2006,06,22,12,08,1026.72
2006,06,22,12,09,1026.72
2006,06,22,12,10,1026.72
2006,06,22,12,11,1026.72
2006,06,22,12,12,1026.72
2006,06,22,12,13,1026.72
2006,06,22,12,14,1026.72
2006,06,22,12,15,1026.72
2006,06,22,12,16,1026.72
2006,06,22,12,17,1026.72
2006,06,22,12,18,1026.72
2006,06,22,12,19,1026.72
2006,06,22,12,20,1026.72
2006,06,22,12,21,1026.72
2006,06,22,12,22,1026.72
2006,06,22,12,23,1026.72
2006,06,22,12,24,1026.72
2006,06,22,12,25,1026.72
2006,06,22,12,26,1026.72
2006,06,22,12,27,1026.72
2006,06,22,12,28,1026.72
2006,06,22,12,29,1026.72
2006,06,22,12,30,1026.69
2006,06,22,12,31,1026.69
2006,06,22,12,32,1026.69
2006,06,22,12,33,1026.69
2006,06,22,12,34,1026.69
2006,06,22,12,35,1026.69
2006,06,22,12,36,1026.69
2006,06,22,12,37,1026.69
2006,06,22,12,38,1026.69
2006,06,22,12,39,1026.69
2006,06,22,12,40,1026.69
2006,06,22,12,41,1026.69
2006,06,22,12,42,1026.69
2006,06,22,12,43,1026.69
2006,06,22,12,44,1026.69
2006,06,22,12,45,1026.74
2006,06,22,12,46,1026.75
2006,06,22,12,47,1026.75
2006,06,22,12,48,1026.75
2006,06,22,12,49,1026.75
2006,06,22,12,50,1026.75
2006,06,22,12,51,1026.75
2006,06,22,12,52,1026.75
2006,06,22,12,53,1026.75
2006,06,22,12,54,1026.75
2006,06,22,12,55,1026.75
2006,06,22,12,56,1026.75
2006,06,22,12,57,1026.75
2006,06,22,12,58,1026.75
2006,06,22,12,59,1026.75
2006,06,22,13,00,1026.81
2006,06,22,13,01,1026.82
2006,06,22,13,02,1026.82
2006,06,22,13,03,1026.82
2006,06,22,13,04,1026.82
2006,06,22,13,05,1026.82
2006,06,22,16,24,1026.45
2006,06,22,16,25,1026.45
2006,06,22,16,26,1026.45
2006,06,22,16,27,1026.45
2006,06,22,16,28,1026.45
2006,06,22,16,29,1026.45
2006,06,22,16,30,1026.39
2006,06,22,16,31,1026.38
2006,06,22,16,32,1026.38
2006,06,22,16,33,1026.38
2006,06,22,16,34,1026.38
2006,06,22,16,35,1026.38
2006,06,22,16,36,1026.38
2006,06,22,16,37,1026.38
2006,06,22,16,38,1026.38
2006,06,22,16,39,1026.38
2006,06,22,16,40,1026.38
2006,06,22,16,41,1026.38
2006,06,22,16,42,1026.38
2006,06,22,16,43,1026.38
2006,06,22,16,44,1026.38
2006,06,22,16,45,1026.20
2006,06,22,16,46,1026.18
2006,06,22,16,47,1026.18
2006,06,22,16,48,1026.18
2006,06,22,16,49,1026.18
2006,06,22,16,50,1026.18
2006,06,22,16,51,1026.18
2006,06,22,16,52,1026.18
2006,06,22,16,53,1026.18
2006,06,22,16,54,1026.18
2006,06,22,16,55,1026.18
2006,06,22,16,56,1026.18
2006,06,22,16,57,1026.18
2006,06,22,16,58,1026.18
2006,06,22,16,59,1026.18
2006,06,22,17,00,1026.18
2006,06,22,17,01,1026.18
2006,06,22,17,02,1026.18
2006,06,22,17,03,1026.18
2006,06,22,17,04,1026.18
2006,06,22,17,05,1026.18
2006,06,22,17,06,1026.18
2006,06,22,17,07,1026.18
2006,06,22,17,08,1026.18
2006,06,22,17,09,1026.18
2006,06,22,17,10,1026.18
2006,06,22,17,11,1026.18
2006,06,22,17,12,1026.18
2006,06,22,17,13,1026.18
2006,06,22,17,14,1026.18
2006,06,22,17,15,1026.27
2006,06,22,17,16,1026.28
2006,06,22,17,17,1026.28
2006,06,22,17,18,1026.28
2006,06,22,17,19,1026.28
2006,06,22,17,20,1026.28
2006,06,22,17,21,1026.28
2006,06,22,17,22,1026.28
2006,06,22,17,23,1026.28
2006,06,22,17,24,1026.28
2006,06,22,17,25,1026.28
2006,06,22,17,26,1026.28
2006,06,22,17,27,1026.28
2006,06,22,17,28,1026.28
2006,06,22,17,29,1026.28
2006,06,22,17,30,1026.19
2006,06,22,17,31,1026.18
2006,06,22,17,32,1026.18
2006,06,22,17,33,1026.18
2006,06,22,17,34,1026.18
2006,06,22,17,35,1026.18
2006,06,22,17,36,1026.18
2006,06,22,17,37,1026.18
2006,06,22,17,38,1026.18
2006,06,22,17,39,1026.18
2006,06,22,17,40,1026.18
2006,06,22,17,41,1026.18
2006,06,22,17,42,1026.18
2006,06,22,17,43,1026.18
2006,06,22,17,44,1026.18
2006,06,22,17,45,1026.05
2006,06,22,17,46,1026.04
2006,06,22,17,47,1026.04
2006,06,22,17,48,1026.04
2006,06,22,17,49,1026.04
2006,06,22,17,50,1026.04
2006,06,22,17,51,1026.04
2006,06,22,17,52,1026.04
2006,06,22,17,53,1026.04
2006,06,22,17,54,1026.04
2006,06,22,17,55,1026.04
2006,06,22,17,56,1026.04
2006,06,22,17,57,1026.04
2006,06,22,17,58,1026.04
2006,06,22,17,59,1026.04
2006,06,22,18,00,1025.95
2006,06,22,18,01,1025.94
2006,06,22,18,02,1025.94
2006,06,22,18,03,1025.94
2006,06,22,18,04,1025.94
2006,06,22,18,05,1025.94
2006,06,22,18,06,1025.94
2006,06,22,18,07,1025.94
2006,06,22,18,08,1025.94
2006,06,22,18,09,1025.94
2006,06,22,18,10,1025.94
2006,06,22,18,11,1025.94
2006,06,22,18,12,1025.94
2006,06,22,18,13,1025.94
2006,06,22,18,14,1025.94
2006,06,22,18,15,1025.77
2006,06,22,18,16,1025.74
2006,06,22,18,17,1025.74
2006,06,22,18,18,1025.74
2006,06,22,18,19,1025.74
2006,06,22,18,20,1025.74
2006,06,22,18,21,1025.74
2006,06,22,18,22,1025.74
2006,06,22,18,23,1025.74
2006,06,22,18,24,1025.74
2006,06,22,18,25,1025.74
2006,06,22,18,26,1025.74
2006,06,22,18,27,1025.74
2006,06,22,18,28,1025.74
2006,06,22,18,29,1025.74
2006,06,22,18,30,1025.83
2006,06,22,18,31,1025.84
2006,06,22,18,32,1025.84
2006,06,22,18,33,1025.84
2006,06,22,18,34,1025.84
2006,06,22,18,35,1025.84
2006,06,22,18,36,1025.84
2006,06,22,18,37,1025.84
2006,06,22,18,38,1025.84
2006,06,22,18,39,1025.84
2006,06,22,18,40,1025.84
2006,06,22,18,41,1025.84
2006,06,22,18,42,1025.84
2006,06,22,18,43,1025.84
2006,06,22,18,44,1025.84
2006,06,22,18,45,1025.69
2006,06,22,18,46,1025.67
2006,06,22,18,47,1025.67
2006,06,22,18,48,1025.67
2006,06,22,18,49,1025.67
2006,06,22,18,50,1025.67
2006,06,22,18,51,1025.67
2006,06,22,18,52,1025.67
2006,06,22,18,53,1025.67
2006,06,22,18,54,1025.67
2006,06,22,18,55,1025.67
2006,06,22,18,56,1025.67
2006,06,22,18,57,1025.67
2006,06,22,18,58,1025.67
2006,06,22,18,59,1025.67
2006,06,22,19,00,1026.00
2006,06,22,19,01,1026.04
2006,06,22,19,02,1026.04
2006,06,22,19,03,1026.04
2006,06,22,19,04,1026.04
2006,06,22,19,05,1026.04
2006,06,22,19,06,1026.04
2006,06,22,19,07,1026.04
2006,06,22,19,08,1026.04
2006,06,22,19,09,1026.04
2006,06,22,19,10,1026.04
2006,06,22,19,11,1026.04
2006,06,22,19,12,1026.04
2006,06,22,19,13,1026.04
2006,06,22,19,14,1026.04